Location: Sweetwater (historical)
(38.4624°N, 119.1749°W)
Time: 12:51:44
(UTC+00:00)

ARIANE 5 R/B - Pass Details

Date: 13 August 2020
Orbit: 749 x 794 km, 98.6° (Epoch: 21 September)

Event Time Altitude Azimuth Distance (km) Brightness Sun altitude
Rises 11:59:19 0° 357° (N) 3,302 6.2 -13.3°
Reaches altitude 10° 12:02:12 10° 341° (NNW) 2,370 5.2 -12.8°
Maximum altitude 12:05:56 20° 296° (WNW) 1,758 4.1 -12.2°
Enters shadow 12:08:33 14° 260° (W) 2,077 4.2 -11.8°
